Tracking 19246 objects as of 20-Aug-2018
HD Live streaming from Space Station
objects crossing your sky now

FENGYUN 1C DEB

Track FENGYUN 1C DEB now!
10-day predictions


NORAD ID: 32115
Int'l Code: 1999-025CRH
Perigee: 814.9 km
Apogee: 852.1 km
Inclination: 99.0 °
Period: 101.4 minutes
Semi major axis: 7204 km
RCS: 0.0124 m2 (small)
Launch date: May 10, 1999
Source: People's Republic of China (PRC)
Launch site: Taiyaun Space Center, China (TSC)

Note: This is SATELLITE DEBRIS
aabbcc
Your satellite tracking list
Your tracking list is empty




NASA's NSSDC Master Catalog

Two Line Element Set (TLE):
1 32115U 99025CRH 18225.33060125  .00000764  00000-0  38142-3 0  9993
2 32115  98.9730 260.3546 0025770  94.5606 265.8514 14.19704091570062
Source of the keplerian elements: AFSPC